RH
16 46 78 89 78 77 67 30 14 21 37 28 17 10 9 5 2 2 3 4 4 4 4 3 3 3 3 3 2 2 2 2 2 2 2 2 2 2 2 2 4 4 3
8 24 52 89 82 81 78 51 20 12 30 33 23 14 10 8 2 2 2 3 4 4 4 4 3 3 3 3 2 2 2 2 2 2 2 2 2 2 2 2 2 3 3
9 11 26 76 84 79 81 71 37 15 16 31 26 18 12 10 6 2 2 2 3 4 4 4 4 4 4 3 3 2 2 2 2 2 2 2 2 2 2 2 2 3 3
10 9 24 54 91 88 81 86 61 20 13 25 26 23 16 11 9 3 2 2 2 4 4 4 4 4 4 4 3 3 2 3 2 2 2 2 2 2 2 2 3 3 4
10 10 17 35 94 99 99 92 72 32 15 18 28 28 21 15 11 8 2 2 2 3 4 4 4 4 4 4 4 3 3 3 3 2 2 2 2 2 2 2 2 3 4
15 10 14 42 78 98 100 98 83 47 22 16 24 34 32 23 19 11 4 2 2 2 3 4 5 4 4 4 4 4 3 3 3 3 2 2 2 2 2 2 2 2 3
14 22 11 26 39 66 96 100 94 68 35 21 18 29 38 37 26 22 10 2 2 3 3 4 5 5 5 5 5 4 4 4 3 3 3 3 2 3 2 2 2 2 3
19 24 19 14 22 39 60 97 97 93 58 35 19 21 34 38 36 27 16 7 2 2 3 3 4 5 5 5 5 5 4 4 3 3 3 3 3 3 3 2 2 2 2
24 36 50 22 16 31 58 95 96 95 80 44 29 19 27 38 37 34 25 13 4 2 2 3 3 4 5 5 5 5 5 5 5 4 3 3 3 3 3 3 3 2 3
19 51 53 40 22 16 26 77 98 93 96 70 33 24 20 33 36 36 32 21 10 2 2 3 3 4 4 5 5 5 4 5 5 5 4 3 3 3 3 3 3 3 3
24 47 75 67 38 32 23 38 73 98 98 96 67 28 22 23 36 35 35 29 17 5 2 2 3 3 3 4 4 5 5 4 4 5 5 4 3 3 4 4 4 3 4
44 46 74 86 59 42 34 34 54 82 98 98 94 63 26 21 27 37 36 36 24 13 3 2 2 3 3 3 4 4 4 5 4 4 5 5 5 4 4 4 4 4 3
29 56 63 74 72 53 57 37 50 68 95 97 95 89 54 25 23 27 39 35 33 20 10 2 2 3 3 3 4 4 4 4 4 4 4 4 5 5 5 5 4 4 4
32 26 77 69 94 71 90 50 35 66 95 99 92 92 82 48 22 24 34 42 36 31 20 10 2 2 3 3 3 3 4 4 4 4 4 4 4 4 4 5 6 5 4
64 60 26 59 87 90 55 55 67 31 70 96 96 95 94 78 38 24 28 44 43 36 32 24 12 3 2 2 2 3 3 4 4 4 4 4 4 4 4 4 4 5 6
75 94 54 18 62 93 96 70 77 63 42 87 97 89 92 93 59 29 26 39 52 40 38 38 28 22 4 2 2 2 3 3 4 4 4 4 4 4 4 4 4 4 4
87 76 98 45 24 69 59 87 74 92 82 65 57 68 66 84 90 63 30 30 48 50 46 48 43 35 36 12 4 2 2 3 3 3 4 4 4 4 3 3 3 4 4
34 42 93 48 50 67 77 88 90 83 84 77 46 62 59 64 76 89 71 33 34 46 55 57 54 56 44 42 23 7 3 2 3 3 3 4 4 4 4 4 4 3 3
68 98 66 90 29 79 83 65 94 79 77 84 97 46 64 66 66 76 86 83 43 31 44 56 60 61 61 53 46 33 14 5 3 3 3 3 4 4 4 4 4 4 5
65 83 98 98 80 99 94 64 95 94 78 65 97 68 55 68 80 72 73 71 73 62 43 49 58 64 60 61 63 54 41 24 12 5 3 3 3 4 5 6 8 11 20
99 50 97 97 66 51 66 80 76 64 66 59 96 94 85 66 98 85 73 76 84 80 68 47 45 60 72 66 67 63 57 48 39 26 13 7 4 4 4 4 11 10 15
59 46 87 97 92 69 39 82 82 89 74 64 84 96 96 91 76 96 84 76 76 90 80 72 56 40 47 64 63 66 64 60 57 53 43 26 10 5 4 4 7 10 16
31 64 55 86 98 83 73 77 79 74 69 77 85 94 96 97 95 69 95 97 90 94 100 99 82 48 43 54 71 65 69 65 68 68 65 53 29 14 6 5 5 10 19
80 53 52 60 98 98 99 96 82 75 57 87 74 85 96 96 84 97 95 77 82 81 96 91 99 88 53 83 52 62 64 72 73 69 64 60 53 38 22 10 6 7 13
37 49 62 46 88 98 90 73 86 74 73 86 98 94 90 85 96 95 82 99 74 72 88 96 89 92 92 95 85 56 64 73 74 74 72 67 59 54 41 26 10 6 6
7 29 42 46 58 98 92 75 98 76 74 81 100 96 96 82 95 94 95 80 82 96 93 97 96 97 93 96 95 94 96 79 81 74 76 74 75 66 56 44 22 8 8
Wind_Speed
26 33 34 32 30 32 31 29 28 29 27 24 22 19 16 14 14 13 11 9 9 9 12 10 16 19 20 20 22 28 30 31 33 35 32 30 23 15 11 7 5 4 5
26 31 36 35 33 32 33 32 30 30 31 28 26 23 20 17 16 14 12 12 10 9 10 11 13 17 19 20 20 25 27 30 30 32 31 30 28 23 15 11 9 6 5
29 29 37 38 36 33 36 35 33 31 32 32 29 27 24 21 19 18 15 14 12 11 11 10 13 15 17 19 20 20 25 27 28 28 28 30 30 29 24 19 13 8 6
34 31 36 39 37 37 37 38 37 34 33 34 32 30 28 25 22 21 19 16 15 13 12 11 12 13 17 17 17 17 20 24 27 25 25 26 28 30 28 26 23 18 9
38 35 36 41 40 38 38 41 39 37 34 35 35 33 30 28 25 22 22 19 17 15 14 12 11 13 14 16 15 15 17 21 24 22 23 25 26 28 28 28 26 24 18
39 39 37 39 44 42 38 42 41 41 37 36 37 35 32 30 28 26 24 22 20 18 16 14 12 12 13 14 14 14 14 16 20 21 20 23 23 24 25 27 27 23 22
43 42 40 42 41 45 44 44 44 43 42 38 38 38 36 33 31 28 26 25 23 21 19 16 13 12 12 13 14 13 14 13 13 18 18 19 21 23 22 24 26 24 25
45 43 45 43 44 43 49 47 45 45 45 43 40 40 39 36 35 32 29 27 26 23 21 19 16 14 12 11 12 12 13 12 9 13 15 16 18 20 20 21 23 23 25
49 48 47 49 46 43 47 51 47 47 46 46 44 41 42 40 37 35 32 29 28 25 23 21 19 16 13 12 11 12 12 12 11 8 11 13 14 15 17 17 20 20 20
55 52 52 53 54 50 46 51 51 48 50 48 47 45 44 43 41 38 35 32 30 29 25 23 20 18 16 13 11 10 11 12 12 9 8 9 11 11 12 14 13 15 15
63 56 55 52 55 54 52 51 53 53 49 51 52 49 47 46 45 42 38 35 32 31 28 24 22 21 18 16 14 11 10 8 9 10 9 8 8 7 8 8 11 10 10
61 64 56 56 56 56 59 55 54 55 54 51 54 54 49 47 46 45 42 39 37 33 30 26 25 24 21 19 18 15 14 11 9 9 8 7 7 6 5 4 5 5 4
70 62 58 57 64 60 58 60 56 55 56 53 55 56 54 50 48 47 45 42 38 35 30 29 29 27 26 23 21 18 16 14 12 10 9 8 7 5 4 3 1 1 1
74 70 64 71 56 61 56 62 61 56 54 55 54 56 57 53 50 48 47 43 41 39 37 33 32 31 29 26 24 21 19 17 15 13 12 11 10 7 7 6 5 2 6
66 74 79 66 69 66 72 65 63 63 59 55 58 54 57 56 53 51 49 47 44 44 42 37 34 34 33 30 28 25 23 21 18 16 14 12 12 11 9 11 10 8 8
81 73 73 83 73 67 56 65 59 64 65 62 57 57 55 57 56 52 51 49 49 49 46 42 39 36 35 34 31 29 27 24 22 20 17 15 15 14 13 11 14 12 12
83 85 76 81 81 72 67 67 71 58 59 66 63 60 60 58 57 55 51 51 53 53 50 45 43 41 37 36 34 33 31 28 26 24 21 19 17 17 15 13 14 14 12
85 83 83 77 79 75 79 68 63 68 63 58 62 62 61 60 59 57 56 52 54 55 53 47 45 43 43 40 37 36 34 32 30 27 25 23 21 19 18 16 14 14 14
90 82 80 82 93 81 78 77 74 76 68 64 54 65 63 62 61 60 57 56 53 54 54 50 47 46 45 45 42 39 36 35 34 31 29 25 24 23 22 19 16 16 16
97 90 79 90 88 81 81 88 63 67 69 66 50 60 67 67 63 61 60 58 58 60 53 51 49 48 48 47 46 43 40 38 36 34 32 28 27 27 25 24 21 19 20
101 105 89 80 80 82 83 83 84 79 73 72 58 49 68 76 69 67 64 61 57 56 60 56 50 52 50 49 48 47 45 42 40 36 34 31 30 29 28 27 25 21 23
108 111 110 88 82 86 88 83 86 72 78 75 67 61 73 88 77 70 67 64 61 58 58 62 62 55 53 53 52 51 49 45 41 37 35 34 33 32 32 31 28 25 23
107 109 107 101 88 88 83 90 86 86 80 79 79 68 56 61 63 73 67 65 64 60 58 58 59 60 55 53 52 52 49 47 43 41 39 37 36 35 34 34 32 32 29
101 117 113 110 97 98 89 80 89 87 88 84 84 84 74 53 68 62 53 72 60 62 62 58 55 59 61 60 58 55 53 50 48 45 43 40 39 38 37 37 36 35 33
107 115 113 116 107 93 86 82 82 86 89 87 77 60 78 73 60 64 69 69 68 72 68 54 62 61 61 53 58 61 57 55 51 47 45 43 43 42 41 39 38 36 35
99 111 123 122 120 106 97 93 81 94 92 90 86 73 66 70 67 73 62 74 73 72 67 58 57 65 60 57 53 58 59 59 53 52 49 49 46 45 43 41 39 37 35
Wind_Direction
223 219 221 221 219 217 213 210 197 198 200 201 199 198 190 186 181 169 168 147 142 119 103 90 95 90 83 75 72 72 67 57 54 53 55 58 54 53 50 46 68 65 67
226 221 221 221 216 218 214 213 208 199 202 202 203 199 198 193 188 185 179 166 162 140 118 106 96 89 82 77 68 74 70 68 58 55 53 56 57 48 40 33 28 38 68
225 220 220 220 222 217 217 211 213 203 204 205 204 202 201 199 195 187 189 182 172 159 137 132 110 100 90 80 70 67 76 72 68 59 54 54 55 50 42 39 29 21 34
217 214 218 217 220 217 214 210 211 209 205 207 206 206 204 201 201 193 190 193 180 176 159 154 130 115 100 87 78 72 75 77 74 67 61 59 56 57 49 44 43 34 27
213 214 217 215 214 212 212 210 208 210 207 208 211 208 207 205 204 202 196 192 189 182 175 172 152 129 114 105 92 77 75 79 80 73 71 64 59 58 53 49 51 46 41
219 208 213 215 213 213 211 210 209 209 210 210 214 213 209 210 208 203 205 196 196 184 186 180 171 147 136 121 109 95 83 80 85 82 74 74 70 63 57 56 53 55 61
220 217 205 212 216 218 214 210 212 209 210 212 214 216 214 211 210 209 206 205 200 192 187 188 184 169 159 139 126 115 101 90 88 89 86 80 76 74 64 63 56 55 61
222 220 212 208 213 216 216 212 210 213 209 211 214 217 217 215 212 210 208 210 207 199 192 190 192 188 175 161 146 135 123 113 94 95 89 87 83 83 78 72 66 60 59
221 221 219 206 208 212 214 216 212 213 214 211 212 215 218 217 216 214 210 211 211 206 200 195 198 196 192 181 177 156 146 132 121 106 99 95 89 86 85 79 80 70 65
221 219 219 218 205 208 211 216 215 213 215 214 213 214 217 218 218 217 214 212 213 210 204 201 201 204 204 196 198 185 168 156 143 135 119 107 103 98 90 93 80 80 74
218 218 218 218 215 206 208 212 214 213 214 217 215 215 216 218 219 218 216 215 213 213 206 203 207 210 207 206 203 202 197 186 170 159 148 140 123 111 104 96 93 74 69
214 214 216 219 215 214 209 207 210 214 216 221 218 216 216 217 219 220 218 217 216 214 210 204 208 214 213 211 214 207 209 201 200 191 181 174 158 153 139 121 106 93 57
216 209 212 217 221 216 212 210 209 210 217 218 222 217 216 217 217 219 220 219 220 219 214 208 211 216 216 215 216 217 217 213 209 209 206 207 201 189 200 184 241 93 285
214 212 207 210 211 214 216 213 210 209 212 220 221 222 218 217 218 218 220 221 222 222 219 214 212 217 220 218 220 221 222 220 217 217 215 213 231 207 232 242 241 249 284
217 209 208 207 215 207 216 214 212 210 212 213 220 222 222 218 219 219 218 219 222 224 223 218 216 219 221 221 220 223 224 225 222 226 227 227 230 237 227 258 263 256 261
209 215 218 212 209 213 205 211 214 212 211 214 218 219 224 220 219 219 219 219 221 223 224 222 219 220 224 224 222 224 226 227 228 228 227 234 239 240 243 241 258 261 270
209 207 208 211 212 214 214 214 212 201 222 214 214 217 220 222 221 220 220 219 222 223 223 221 222 223 225 227 226 227 228 229 232 231 232 234 239 248 253 252 258 266 274
215 212 214 213 206 209 212 212 208 212 208 223 222 216 218 220 222 223 220 221 223 224 225 223 223 224 227 228 228 229 231 230 233 234 236 236 241 245 251 254 254 263 267
207 204 211 211 214 208 210 209 212 213 211 215 224 218 217 218 220 223 223 222 224 227 228 225 225 225 228 230 231 231 233 234 235 235 238 239 240 246 248 248 250 257 265
209 201 205 198 199 203 205 209 213 206 209 211 224 224 218 216 216 219 222 223 225 226 230 229 227 227 229 232 234 234 234 235 237 237 239 240 243 246 248 251 251 252 266
206 206 202 210 209 212 208 209 212 214 212 212 218 229 218 218 218 217 217 221 224 226 228 232 230 229 229 231 235 237 237 237 239 240 242 243 245 247 250 252 253 252 257
209 206 209 207 212 211 215 209 209 211 207 211 215 220 216 220 218 218 216 217 220 225 228 230 229 233 234 232 233 236 237 238 240 242 245 247 247 248 250 253 254 250 253
212 207 209 208 209 207 207 210 209 213 210 212 213 217 212 207 221 219 217 218 219 222 226 229 230 233 233 234 232 237 240 242 243 244 244 247 248 248 250 252 253 253 253
212 208 205 205 200 201 206 200 208 212 212 214 216 223 224 214 211 221 226 219 218 228 228 233 232 234 233 240 238 237 238 239 241 242 243 245 247 249 250 251 253 255 257
212 213 208 210 207 210 201 206 208 209 213 214 213 229 226 228 222 230 218 220 221 224 233 225 233 233 241 238 235 237 241 239 239 240 243 246 247 248 250 252 252 255 260
215 212 206 208 212 214 208 205 209 210 211 213 213 230 218 219 221 230 224 220 218 226 221 236 233 232 243 237 240 245 240 240 238 242 242 244 244 247 250 251 256 256 257